カタログに戻る

SL-12 DEB

運用中MEO
NORAD 19753·DEBRIS·🇷🇺 Russia

打ち上げ Jan 10, 1989 から Baikonur Cosmodrome

Loading…

次のパス (今後24時間)

TLE

最新Source: Space-Track

元期: Sep 14, 2026, 11:49 UTC

1 19753U 89001E   26257.49274069 -.00000011  00000-0  00000-0 0  9999
2 19753  65.0028  69.1154 0024863 212.6702 151.5780  2.13160798293599

AllMySatでSL-12 DEBをリアルタイム追跡

Download on the App Store